Year,Month,Day,Hour,Minute,Value (Times are PST for temperature in C)
2023,05,15,00,00,22.20
2023,05,15,00,01,22.10
2023,05,15,00,02,22.10
2023,05,15,00,03,22.10
2023,05,15,00,04,22.10
2023,05,15,00,05,22.10
2023,05,15,00,06,22.10
2023,05,15,00,07,22.10
2023,05,15,00,08,22.10
2023,05,15,00,09,22.00
2023,05,15,00,10,22.00
2023,05,15,00,11,22.00
2023,05,15,00,12,22.00
2023,05,15,00,13,22.00
2023,05,15,00,14,21.90
2023,05,15,00,15,21.90
2023,05,15,00,16,21.90
2023,05,15,00,17,21.80
2023,05,15,00,18,21.80
2023,05,15,00,19,21.80
2023,05,15,00,20,21.80
2023,05,15,00,21,21.70
2023,05,15,00,22,21.70
2023,05,15,00,23,21.70
2023,05,15,00,24,21.60
2023,05,15,00,25,21.60
2023,05,15,00,26,21.60
2023,05,15,00,27,21.60
2023,05,15,00,28,21.60
2023,05,15,00,29,21.50
2023,05,15,00,30,21.40
2023,05,15,00,31,21.40
2023,05,15,00,32,21.40
2023,05,15,00,33,21.40
2023,05,15,00,34,21.40
2023,05,15,00,35,21.40
2023,05,15,00,36,21.30
2023,05,15,00,37,21.30
2023,05,15,00,38,21.30
2023,05,15,00,39,21.30
2023,05,15,00,40,21.30
2023,05,15,00,41,21.30
2023,05,15,00,42,21.30
2023,05,15,00,43,21.30
2023,05,15,00,44,21.30
2023,05,15,00,45,21.30
2023,05,15,00,46,21.30
2023,05,15,00,47,21.30
2023,05,15,00,48,21.30
2023,05,15,00,49,21.30
2023,05,15,00,50,21.30
2023,05,15,00,51,21.30
2023,05,15,00,52,21.20
2023,05,15,00,53,21.20
2023,05,15,00,54,21.20
2023,05,15,00,55,21.20
2023,05,15,00,56,21.20
2023,05,15,00,57,21.20
2023,05,15,00,58,21.20
2023,05,15,00,59,21.20
2023,05,15,01,00,21.10
2023,05,15,01,01,21.10
2023,05,15,01,02,21.10
2023,05,15,01,03,21.20
2023,05,15,01,04,21.20
2023,05,15,01,05,21.20
2023,05,15,01,06,21.20
2023,05,15,01,07,21.20
2023,05,15,01,08,21.20
2023,05,15,01,09,21.30
2023,05,15,01,10,21.30
2023,05,15,01,11,21.30
2023,05,15,01,12,21.30
2023,05,15,01,13,21.30
2023,05,15,01,14,21.20
2023,05,15,01,15,21.20
2023,05,15,01,16,21.20
2023,05,15,01,17,21.20
2023,05,15,01,18,21.20
2023,05,15,01,19,21.20
2023,05,15,01,20,21.20
2023,05,15,01,21,21.30
2023,05,15,01,22,21.40
2023,05,15,01,23,21.60
2023,05,15,01,24,21.60
2023,05,15,01,25,21.60
2023,05,15,01,26,21.70
2023,05,15,01,27,21.70
2023,05,15,01,28,21.60
2023,05,15,01,29,21.60
2023,05,15,01,30,21.60
2023,05,15,01,31,21.60
2023,05,15,01,32,21.40
2023,05,15,01,33,21.40
2023,05,15,01,34,21.30
2023,05,15,01,35,21.30
2023,05,15,01,36,21.20
2023,05,15,01,37,21.10
2023,05,15,01,38,21.00
2023,05,15,01,39,21.00
2023,05,15,01,40,20.90
2023,05,15,01,41,20.80
2023,05,15,01,42,20.80
2023,05,15,01,43,20.70
2023,05,15,01,44,20.70
2023,05,15,01,45,20.70
2023,05,15,01,46,20.60
2023,05,15,01,47,20.60
2023,05,15,01,48,20.60
2023,05,15,01,49,20.60
2023,05,15,01,50,20.60
2023,05,15,01,51,20.50
2023,05,15,01,52,20.50
2023,05,15,01,53,20.50
2023,05,15,01,54,20.50
2023,05,15,01,55,20.50
2023,05,15,01,56,20.50
2023,05,15,01,57,20.50
2023,05,15,01,58,20.50
2023,05,15,01,59,20.40
2023,05,15,02,00,20.40
2023,05,15,02,01,20.40
2023,05,15,02,02,20.30
2023,05,15,02,03,20.30
2023,05,15,02,04,20.20
2023,05,15,02,05,20.20
2023,05,15,02,06,20.20
2023,05,15,02,07,20.10
2023,05,15,02,08,20.00
2023,05,15,02,09,19.90
2023,05,15,02,10,19.90
2023,05,15,02,11,19.80
2023,05,15,02,12,19.80
2023,05,15,02,13,19.80
2023,05,15,02,14,19.80
2023,05,15,02,15,19.70
2023,05,15,02,16,19.70
2023,05,15,02,17,19.70
2023,05,15,02,18,19.60
2023,05,15,02,19,19.60
2023,05,15,02,20,19.60
2023,05,15,02,21,19.50
2023,05,15,02,22,19.50
2023,05,15,02,23,19.50
2023,05,15,02,24,19.50
2023,05,15,02,25,19.50
2023,05,15,02,26,19.50
2023,05,15,02,27,19.50
2023,05,15,02,28,19.40
2023,05,15,02,29,19.40
2023,05,15,02,30,19.50
2023,05,15,02,31,19.50
2023,05,15,02,32,19.50
2023,05,15,02,33,19.50
2023,05,15,02,34,19.60
2023,05,15,02,35,19.60
2023,05,15,02,36,19.60
2023,05,15,02,37,19.70
2023,05,15,02,38,19.70
2023,05,15,02,39,19.70
2023,05,15,02,40,19.70
2023,05,15,02,41,19.70
2023,05,15,02,42,19.70
2023,05,15,02,43,19.70
2023,05,15,02,44,19.70
2023,05,15,02,45,19.80
2023,05,15,02,46,19.90
2023,05,15,02,47,19.90
2023,05,15,02,48,20.00
2023,05,15,02,49,20.10
2023,05,15,02,50,20.10
2023,05,15,02,51,20.20
2023,05,15,02,52,20.20
2023,05,15,02,53,20.20
2023,05,15,02,54,20.20
2023,05,15,02,55,20.10
2023,05,15,02,56,20.10
2023,05,15,02,57,20.10
2023,05,15,02,58,20.10
2023,05,15,02,59,20.10
2023,05,15,03,00,20.00
2023,05,15,03,01,20.10
2023,05,15,03,02,20.00
2023,05,15,03,03,20.00
2023,05,15,03,04,20.10
2023,05,15,03,05,20.10
2023,05,15,03,06,20.10
2023,05,15,03,07,20.10
2023,05,15,03,08,20.10
2023,05,15,03,09,20.10
2023,05,15,03,10,20.10
2023,05,15,03,11,20.10
2023,05,15,03,12,20.10
2023,05,15,03,13,20.10
2023,05,15,03,14,20.10
2023,05,15,03,15,20.10
2023,05,15,03,16,20.10
2023,05,15,03,17,20.10
2023,05,15,03,18,20.20
2023,05,15,03,19,20.20
2023,05,15,03,20,20.20
2023,05,15,03,21,20.20
2023,05,15,03,22,20.20
2023,05,15,03,23,20.10
2023,05,15,03,24,19.90
2023,05,15,03,25,19.80
2023,05,15,03,26,19.60
2023,05,15,03,27,19.50
2023,05,15,03,28,19.30
2023,05,15,03,29,19.10
2023,05,15,03,30,18.90
2023,05,15,03,31,18.80
2023,05,15,03,32,18.60
2023,05,15,03,33,18.40
2023,05,15,03,34,18.20
2023,05,15,03,35,18.10
2023,05,15,03,36,17.90
2023,05,15,03,37,17.80
2023,05,15,03,38,17.70
2023,05,15,03,39,17.60
2023,05,15,03,40,17.60
2023,05,15,03,41,17.50
2023,05,15,03,42,17.40
2023,05,15,03,43,17.30
2023,05,15,03,44,17.20
2023,05,15,03,45,17.20
2023,05,15,03,46,17.10
2023,05,15,03,47,17.00
2023,05,15,03,48,17.00
2023,05,15,03,49,16.90
2023,05,15,03,50,16.90
2023,05,15,03,51,16.90
2023,05,15,03,52,16.80
2023,05,15,03,53,16.80
2023,05,15,03,54,16.80
2023,05,15,03,55,16.80
2023,05,15,03,56,16.80
2023,05,15,03,57,16.80
2023,05,15,03,58,16.80
2023,05,15,03,59,16.90
2023,05,15,04,00,16.90
2023,05,15,04,01,17.00
2023,05,15,04,02,17.10
2023,05,15,04,03,17.10
2023,05,15,04,04,17.20
2023,05,15,04,05,17.30
2023,05,15,04,06,17.40
2023,05,15,04,07,17.60
2023,05,15,04,08,17.80
2023,05,15,04,09,17.90
2023,05,15,04,10,18.20
2023,05,15,04,11,18.40
2023,05,15,04,12,18.50
2023,05,15,04,13,18.70
2023,05,15,04,14,18.80
2023,05,15,04,15,19.00
2023,05,15,04,16,19.10
2023,05,15,04,17,19.30
2023,05,15,04,18,19.40
2023,05,15,04,19,19.50
2023,05,15,04,20,19.60
2023,05,15,04,21,19.70
2023,05,15,04,22,19.80
2023,05,15,04,23,19.90
2023,05,15,04,24,20.00
2023,05,15,04,25,20.10
2023,05,15,04,26,20.20
2023,05,15,04,27,20.20
2023,05,15,04,28,20.20
2023,05,15,04,29,20.20
2023,05,15,04,30,20.20
2023,05,15,04,31,20.20
2023,05,15,04,32,20.20
2023,05,15,04,33,20.20
2023,05,15,04,34,20.10
2023,05,15,04,35,20.10
2023,05,15,04,36,20.10
2023,05,15,04,37,20.00
2023,05,15,04,38,19.90
2023,05,15,04,39,19.90
2023,05,15,04,40,19.90
2023,05,15,04,41,19.90
2023,05,15,04,42,19.90
2023,05,15,04,43,19.90
2023,05,15,04,44,19.90
2023,05,15,04,45,19.90
2023,05,15,04,46,19.80
2023,05,15,04,47,19.80
2023,05,15,04,48,19.80
2023,05,15,04,49,19.80
2023,05,15,04,50,19.70
2023,05,15,04,51,19.70
2023,05,15,04,52,19.70
2023,05,15,04,53,19.70
2023,05,15,04,54,19.60
2023,05,15,04,55,19.60
2023,05,15,04,56,19.60
2023,05,15,04,57,19.60
2023,05,15,04,58,19.50
2023,05,15,04,59,19.50
2023,05,15,05,00,19.50
2023,05,15,05,01,19.50
2023,05,15,05,02,19.60
2023,05,15,05,03,19.60
2023,05,15,05,04,19.70
2023,05,15,05,05,19.80
2023,05,15,05,06,19.90
2023,05,15,05,07,19.90
2023,05,15,05,08,20.00
2023,05,15,05,09,20.10
2023,05,15,05,10,20.10
2023,05,15,05,11,20.20
2023,05,15,05,12,20.20
2023,05,15,05,13,20.20
2023,05,15,05,14,20.20
2023,05,15,05,15,20.30
2023,05,15,05,16,20.30
2023,05,15,05,17,20.30
2023,05,15,05,18,20.30
2023,05,15,05,19,20.30
2023,05,15,05,20,20.30
2023,05,15,05,21,20.30
2023,05,15,05,22,20.20
2023,05,15,05,23,20.20
2023,05,15,05,24,20.20
2023,05,15,05,25,20.20
2023,05,15,05,26,20.20
2023,05,15,05,27,20.20
2023,05,15,05,28,20.20
2023,05,15,05,29,20.10
2023,05,15,05,30,20.10
2023,05,15,05,31,20.20
2023,05,15,05,32,20.20
2023,05,15,05,33,20.10
2023,05,15,05,34,20.10
2023,05,15,05,35,20.10
2023,05,15,05,36,20.10
2023,05,15,05,37,20.10
2023,05,15,05,38,20.10
2023,05,15,05,39,20.10
2023,05,15,05,40,20.10
2023,05,15,05,41,20.10
2023,05,15,05,42,20.00
2023,05,15,05,43,19.90
2023,05,15,05,44,19.90
2023,05,15,05,45,19.90
2023,05,15,05,46,19.90
2023,05,15,05,47,19.90
2023,05,15,05,48,19.90
2023,05,15,05,49,19.90
2023,05,15,05,50,20.00
2023,05,15,05,51,20.10
2023,05,15,05,52,20.10
2023,05,15,05,53,20.10
2023,05,15,05,54,20.10
2023,05,15,05,55,20.20
2023,05,15,05,56,20.20
2023,05,15,05,57,20.20
2023,05,15,05,58,20.20
2023,05,15,05,59,20.30
2023,05,15,06,00,20.30
2023,05,15,06,01,20.40
2023,05,15,06,02,20.40
2023,05,15,06,03,20.40
2023,05,15,06,04,20.40
2023,05,15,06,05,20.40
2023,05,15,06,06,20.40
2023,05,15,06,07,20.40
2023,05,15,06,08,20.40
2023,05,15,06,09,20.40
2023,05,15,06,10,20.40
2023,05,15,06,11,20.40
2023,05,15,06,12,20.50
2023,05,15,06,13,20.50
2023,05,15,06,14,20.50
2023,05,15,06,15,20.50
2023,05,15,06,16,20.50
2023,05,15,06,17,20.50
2023,05,15,06,18,20.60
2023,05,15,06,19,20.60
2023,05,15,06,20,20.60
2023,05,15,06,21,20.60
2023,05,15,06,22,20.60
2023,05,15,06,23,20.60
2023,05,15,06,24,20.60
2023,05,15,06,25,20.60
2023,05,15,06,26,20.60
2023,05,15,06,27,20.60
2023,05,15,06,28,20.50
2023,05,15,06,29,20.50
2023,05,15,06,30,20.50
2023,05,15,06,31,20.50
2023,05,15,06,32,20.40
2023,05,15,06,33,20.40
2023,05,15,06,34,20.30
2023,05,15,06,35,20.30
2023,05,15,06,36,20.30
2023,05,15,06,37,20.40
2023,05,15,06,38,20.40
2023,05,15,06,39,20.40
2023,05,15,06,40,20.40
2023,05,15,06,41,20.50
2023,05,15,06,42,20.50
2023,05,15,06,43,20.50
2023,05,15,06,44,20.50
2023,05,15,06,45,20.50
2023,05,15,06,46,20.60
2023,05,15,06,47,20.60
2023,05,15,06,48,20.60
2023,05,15,06,49,20.60
2023,05,15,06,50,20.60
2023,05,15,06,51,20.70
2023,05,15,06,52,20.70
2023,05,15,06,53,20.70
2023,05,15,06,54,20.70
2023,05,15,06,55,20.80
2023,05,15,06,56,20.80
2023,05,15,06,57,20.90
2023,05,15,06,58,20.90
2023,05,15,06,59,21.00
2023,05,15,07,00,21.00
2023,05,15,07,01,21.10
2023,05,15,07,02,21.20
2023,05,15,07,03,21.20
2023,05,15,07,04,21.20
2023,05,15,07,05,21.30
2023,05,15,07,06,21.30
2023,05,15,07,07,21.30
2023,05,15,07,08,21.40
2023,05,15,07,09,21.40
2023,05,15,07,10,21.60
2023,05,15,07,11,21.60
2023,05,15,07,12,21.60
2023,05,15,07,13,21.70
2023,05,15,07,14,21.70
2023,05,15,07,15,21.80
2023,05,15,07,16,21.80
2023,05,15,07,17,21.90
2023,05,15,07,18,21.90
2023,05,15,07,19,21.70
2023,05,15,07,20,21.50
2023,05,15,07,21,21.30
2023,05,15,07,22,21.00
2023,05,15,07,23,20.70
2023,05,15,07,24,20.40
2023,05,15,07,25,20.10
2023,05,15,07,26,19.90
2023,05,15,07,27,19.70
2023,05,15,07,28,19.60
2023,05,15,07,29,19.60
2023,05,15,07,30,19.60
2023,05,15,07,31,19.60
2023,05,15,07,32,19.70
2023,05,15,07,33,19.80
2023,05,15,07,34,19.90
2023,05,15,07,35,19.90
2023,05,15,07,36,20.10
2023,05,15,07,37,20.20
2023,05,15,07,38,20.30
2023,05,15,07,39,20.40
2023,05,15,07,40,20.50
2023,05,15,07,41,20.60
2023,05,15,07,42,20.60
2023,05,15,07,43,20.60
2023,05,15,07,44,20.70
2023,05,15,07,45,20.70
2023,05,15,07,46,20.80
2023,05,15,07,47,20.80
2023,05,15,07,48,20.90
2023,05,15,07,49,21.00
2023,05,15,07,50,21.10
2023,05,15,07,51,21.20
2023,05,15,07,52,21.30
2023,05,15,07,53,21.40
2023,05,15,07,54,21.60
2023,05,15,07,55,21.70
2023,05,15,07,56,21.80
2023,05,15,07,57,21.90
2023,05,15,07,58,21.90
2023,05,15,07,59,22.00
2023,05,15,08,00,22.00
2023,05,15,08,01,22.10
2023,05,15,08,02,22.10
2023,05,15,08,03,22.10
2023,05,15,08,04,22.10
2023,05,15,08,05,22.10
2023,05,15,08,06,22.10
2023,05,15,08,07,22.10
2023,05,15,08,08,22.20
2023,05,15,08,09,22.20
2023,05,15,08,10,22.20
2023,05,15,08,11,22.30
2023,05,15,08,12,22.30
2023,05,15,08,13,22.30
2023,05,15,08,14,22.40
2023,05,15,08,15,22.40
2023,05,15,08,16,22.40
2023,05,15,08,17,22.40
2023,05,15,08,18,22.30
2023,05,15,08,19,22.30
2023,05,15,08,20,22.30
2023,05,15,08,21,22.30
2023,05,15,08,22,22.30
2023,05,15,08,23,22.30
2023,05,15,08,24,22.30
2023,05,15,08,25,22.20
2023,05,15,08,26,22.10
2023,05,15,08,27,22.00
2023,05,15,08,28,22.00
2023,05,15,08,29,21.80
2023,05,15,08,30,21.60
2023,05,15,08,31,21.50
2023,05,15,08,32,21.30
2023,05,15,08,33,21.00
2023,05,15,08,34,20.70
2023,05,15,08,35,20.50
2023,05,15,08,36,20.30
2023,05,15,08,37,20.20
2023,05,15,08,38,20.00
2023,05,15,08,39,19.90
2023,05,15,08,40,19.90
2023,05,15,08,41,19.90
2023,05,15,08,42,19.90
2023,05,15,08,43,19.90
2023,05,15,08,44,19.90
2023,05,15,08,45,19.90
2023,05,15,08,46,19.90
2023,05,15,08,47,19.90
2023,05,15,08,48,19.90
2023,05,15,08,49,19.90
2023,05,15,08,50,19.90
2023,05,15,08,51,20.00
2023,05,15,08,52,20.10
2023,05,15,08,53,20.20
2023,05,15,08,54,20.30
2023,05,15,08,55,20.50
2023,05,15,08,56,20.60
2023,05,15,08,57,20.80
2023,05,15,08,58,20.80
2023,05,15,08,59,21.00
2023,05,15,09,00,21.10
2023,05,15,09,01,21.30
2023,05,15,09,02,21.30
2023,05,15,09,03,21.50
2023,05,15,09,04,21.60
2023,05,15,09,05,21.70
2023,05,15,09,06,21.80
2023,05,15,09,07,21.90
2023,05,15,09,08,22.00
2023,05,15,09,09,22.10
2023,05,15,09,10,22.10
2023,05,15,09,11,22.20
2023,05,15,09,12,22.20
2023,05,15,09,13,22.20
2023,05,15,09,14,22.20
2023,05,15,09,15,22.10
2023,05,15,09,16,22.10
2023,05,15,09,17,22.20
2023,05,15,09,18,22.20
2023,05,15,09,19,22.30
2023,05,15,09,20,22.40
2023,05,15,09,21,22.50
2023,05,15,09,22,22.50
2023,05,15,09,23,22.60
2023,05,15,09,24,22.60
2023,05,15,09,25,22.60
2023,05,15,09,26,22.60
2023,05,15,09,27,22.50
2023,05,15,09,28,22.50
2023,05,15,09,29,22.50
2023,05,15,09,30,22.50
2023,05,15,09,31,22.60
2023,05,15,09,32,22.60
2023,05,15,09,33,22.70
2023,05,15,09,34,22.70
2023,05,15,09,35,22.70
2023,05,15,09,36,22.80
2023,05,15,09,37,22.80
2023,05,15,09,38,22.90
2023,05,15,09,39,22.90
2023,05,15,09,40,22.90
2023,05,15,09,41,22.90
2023,05,15,09,42,22.90
2023,05,15,09,43,22.90
2023,05,15,09,44,22.90
2023,05,15,09,45,22.90
2023,05,15,09,46,22.90
2023,05,15,09,47,22.90
2023,05,15,09,48,22.90
2023,05,15,09,49,22.90
2023,05,15,09,50,22.80
2023,05,15,09,51,22.80
2023,05,15,09,52,22.70
2023,05,15,09,53,22.70
2023,05,15,09,54,22.70
2023,05,15,09,55,22.70
2023,05,15,09,56,22.70
2023,05,15,09,57,22.70
2023,05,15,09,58,22.80
2023,05,15,09,59,22.80
2023,05,15,10,00,22.90
2023,05,15,10,01,22.90
2023,05,15,10,02,22.90
2023,05,15,10,03,22.90
2023,05,15,10,04,22.90
2023,05,15,10,05,22.90
2023,05,15,10,06,22.90
2023,05,15,10,07,22.90
2023,05,15,10,08,22.90
2023,05,15,10,09,22.90
2023,05,15,10,10,22.90
2023,05,15,10,11,22.90
2023,05,15,10,12,22.90
2023,05,15,10,13,22.90
2023,05,15,10,14,22.90
2023,05,15,10,15,22.90
2023,05,15,10,16,22.90
2023,05,15,10,17,22.80
2023,05,15,10,18,22.80
2023,05,15,10,19,22.80
2023,05,15,10,20,22.80
2023,05,15,10,21,22.80
2023,05,15,10,22,22.90
2023,05,15,10,23,22.90
2023,05,15,10,24,22.90
2023,05,15,10,25,22.90
2023,05,15,10,26,22.90
2023,05,15,10,27,22.90
2023,05,15,10,28,22.90
2023,05,15,10,29,22.90
2023,05,15,10,30,22.90
2023,05,15,10,31,22.90
2023,05,15,10,32,22.90
2023,05,15,10,33,22.90
2023,05,15,10,34,22.90
2023,05,15,10,35,22.90
2023,05,15,10,36,22.90
2023,05,15,10,37,23.00
2023,05,15,10,38,23.10
2023,05,15,10,39,23.10
2023,05,15,10,40,23.10
2023,05,15,10,41,23.10
2023,05,15,10,42,23.10
2023,05,15,10,43,23.10
2023,05,15,10,44,23.20
2023,05,15,10,45,23.20
2023,05,15,10,46,23.20
2023,05,15,10,47,23.10
2023,05,15,10,48,23.20
2023,05,15,10,49,23.20
2023,05,15,10,50,23.20
2023,05,15,10,51,23.20
2023,05,15,10,52,23.20
2023,05,15,10,53,23.20
2023,05,15,10,54,23.20
2023,05,15,10,55,23.20
2023,05,15,10,56,23.30
2023,05,15,10,57,23.30
2023,05,15,10,58,23.30
2023,05,15,10,59,23.30
2023,05,15,11,00,23.40
2023,05,15,11,01,23.40
2023,05,15,11,02,23.40
2023,05,15,11,03,23.50
2023,05,15,11,04,23.60
2023,05,15,11,05,23.60
2023,05,15,11,06,23.50
2023,05,15,11,07,23.40
2023,05,15,11,08,23.40
2023,05,15,11,09,23.40
2023,05,15,11,10,23.30
2023,05,15,11,11,23.30
2023,05,15,11,12,23.30
2023,05,15,11,13,23.30
2023,05,15,11,14,23.30
2023,05,15,11,15,23.30
2023,05,15,11,16,23.30
2023,05,15,11,17,23.30
2023,05,15,11,18,23.30
2023,05,15,11,19,23.30
2023,05,15,11,20,23.30
2023,05,15,11,21,23.30
2023,05,15,11,22,23.30
2023,05,15,11,23,23.30
2023,05,15,11,24,23.30
2023,05,15,11,25,23.30
2023,05,15,11,26,23.30
2023,05,15,11,27,23.30
2023,05,15,11,28,23.30
2023,05,15,11,29,23.30
2023,05,15,11,30,23.20
2023,05,15,11,31,23.20
2023,05,15,11,32,23.20
2023,05,15,11,33,23.30
2023,05,15,11,34,23.30
2023,05,15,11,35,23.40
2023,05,15,11,36,23.50
2023,05,15,11,37,23.50
2023,05,15,11,38,23.40
2023,05,15,11,39,23.40
2023,05,15,11,40,23.30
2023,05,15,11,41,23.30
2023,05,15,11,42,23.30
2023,05,15,11,43,23.30
2023,05,15,11,44,23.30
2023,05,15,11,45,23.30
2023,05,15,11,46,23.30
2023,05,15,11,47,23.40
2023,05,15,11,48,23.40
2023,05,15,11,49,23.40
2023,05,15,11,50,23.50
2023,05,15,11,51,23.60
2023,05,15,11,52,23.60
2023,05,15,11,53,23.60
2023,05,15,11,54,23.60
2023,05,15,11,55,23.70
2023,05,15,11,56,23.70
2023,05,15,11,57,23.70
2023,05,15,11,58,23.70
2023,05,15,11,59,23.70
2023,05,15,12,00,23.70
2023,05,15,12,01,23.70
2023,05,15,12,02,23.70
2023,05,15,12,03,23.70
2023,05,15,12,04,23.70
2023,05,15,12,05,23.70
2023,05,15,12,06,23.70
2023,05,15,12,07,23.70
2023,05,15,12,08,23.70
2023,05,15,12,09,23.70
2023,05,15,12,10,23.70
2023,05,15,12,11,23.70
2023,05,15,12,12,23.80
2023,05,15,12,13,23.90
2023,05,15,12,14,24.00
2023,05,15,12,15,24.10
2023,05,15,12,16,24.10
2023,05,15,12,17,24.20
2023,05,15,12,18,24.20
2023,05,15,12,19,24.30
2023,05,15,12,20,24.40
2023,05,15,12,21,24.50
2023,05,15,12,22,24.60
2023,05,15,12,23,24.70
2023,05,15,12,24,24.80
2023,05,15,12,25,24.80
2023,05,15,12,26,24.70
2023,05,15,12,27,24.80
2023,05,15,12,28,24.80
2023,05,15,12,29,24.90
2023,05,15,12,30,24.90
2023,05,15,12,31,25.10
2023,05,15,12,32,25.10
2023,05,15,12,33,25.20
2023,05,15,12,34,25.20
2023,05,15,12,35,25.40
2023,05,15,12,36,25.40
2023,05,15,12,37,25.50
2023,05,15,12,38,25.60
2023,05,15,12,39,25.70
2023,05,15,12,40,25.70
2023,05,15,12,41,25.70
2023,05,15,12,42,25.70
2023,05,15,12,43,25.70
2023,05,15,12,44,25.70
2023,05,15,12,45,25.70
2023,05,15,12,46,25.60
2023,05,15,12,47,25.60
2023,05,15,12,48,25.60
2023,05,15,12,49,25.60
2023,05,15,12,50,25.60
2023,05,15,12,51,25.60
2023,05,15,12,52,25.60
2023,05,15,12,53,25.70
2023,05,15,12,54,25.80
2023,05,15,12,55,25.80
2023,05,15,12,56,25.90
2023,05,15,12,57,25.80
2023,05,15,12,58,25.80
2023,05,15,12,59,25.70
2023,05,15,13,00,25.60
2023,05,15,13,01,25.50
2023,05,15,13,02,25.40
2023,05,15,13,03,25.40
2023,05,15,13,04,25.40
2023,05,15,13,05,25.30
2023,05,15,13,06,25.30
2023,05,15,13,07,25.30
2023,05,15,13,08,25.30
2023,05,15,13,09,25.40
2023,05,15,13,10,25.40
2023,05,15,13,11,25.50
2023,05,15,13,12,25.50
2023,05,15,13,13,25.50
2023,05,15,13,14,25.60
2023,05,15,13,15,25.60
2023,05,15,13,16,25.70
2023,05,15,13,17,25.80
2023,05,15,13,18,25.80
2023,05,15,13,19,25.90
2023,05,15,13,20,25.90
2023,05,15,13,21,26.10
2023,05,15,13,22,26.20
2023,05,15,13,23,26.20
2023,05,15,13,24,26.10
2023,05,15,13,25,26.10
2023,05,15,13,26,26.10
2023,05,15,13,27,26.20
2023,05,15,13,28,26.20
2023,05,15,13,29,26.00
2023,05,15,13,30,26.00
2023,05,15,13,31,26.10
2023,05,15,13,32,26.10
2023,05,15,13,33,26.20
2023,05,15,13,34,26.30
2023,05,15,13,35,26.50
2023,05,15,13,36,26.60
2023,05,15,13,37,26.60
2023,05,15,13,38,26.60
2023,05,15,13,39,26.60
2023,05,15,13,40,26.60
2023,05,15,13,41,26.70
2023,05,15,13,42,26.80
2023,05,15,13,43,26.90
2023,05,15,13,44,26.90
2023,05,15,13,45,27.10
2023,05,15,13,46,27.10
2023,05,15,13,47,27.20
2023,05,15,13,48,27.30
2023,05,15,13,49,27.30
2023,05,15,13,50,27.30
2023,05,15,13,51,27.30
2023,05,15,13,52,27.30
2023,05,15,13,53,27.30
2023,05,15,13,54,27.30
2023,05,15,13,55,27.30
2023,05,15,13,56,27.30
2023,05,15,13,57,27.40
2023,05,15,13,58,27.50
2023,05,15,13,59,27.60
2023,05,15,14,00,27.70
2023,05,15,14,01,27.70
2023,05,15,14,02,27.80
2023,05,15,14,03,27.80
2023,05,15,14,04,27.90
2023,05,15,14,05,28.00
2023,05,15,14,06,28.10
2023,05,15,14,07,28.10
2023,05,15,14,08,28.10
2023,05,15,14,09,28.00
2023,05,15,14,10,28.00
2023,05,15,14,11,28.00
2023,05,15,14,12,27.90
2023,05,15,14,13,27.80
2023,05,15,14,14,27.70
2023,05,15,14,15,27.70
2023,05,15,14,16,27.60
2023,05,15,14,17,27.60
2023,05,15,14,18,27.70
2023,05,15,14,19,27.80
2023,05,15,14,20,28.00
2023,05,15,14,21,28.00
2023,05,15,14,22,28.10
2023,05,15,14,23,28.10
2023,05,15,14,24,28.20
2023,05,15,14,25,28.10
2023,05,15,14,26,28.00
2023,05,15,14,27,27.90
2023,05,15,14,28,27.90
2023,05,15,14,29,28.00
2023,05,15,14,30,28.00
2023,05,15,14,31,28.00
2023,05,15,14,32,28.00
2023,05,15,14,33,28.10
2023,05,15,14,34,28.10
2023,05,15,14,35,28.20
2023,05,15,14,36,28.20
2023,05,15,14,37,28.20
2023,05,15,14,38,28.30
2023,05,15,14,39,28.40
2023,05,15,14,40,28.40
2023,05,15,14,41,28.40
2023,05,15,14,42,28.30
2023,05,15,14,43,28.30
2023,05,15,14,44,28.40
2023,05,15,14,45,28.50
2023,05,15,14,46,28.60
2023,05,15,14,47,28.50
2023,05,15,14,48,28.60
2023,05,15,14,49,28.60
2023,05,15,14,50,28.70
2023,05,15,14,51,28.70
2023,05,15,14,52,28.70
2023,05,15,14,53,28.70
2023,05,15,14,54,28.80
2023,05,15,14,55,28.90
2023,05,15,14,56,28.90
2023,05,15,14,57,28.90
2023,05,15,14,58,28.90
2023,05,15,14,59,28.70
2023,05,15,15,00,28.50
2023,05,15,15,01,28.30
2023,05,15,15,02,28.30
2023,05,15,15,03,28.30
2023,05,15,15,04,28.30
2023,05,15,15,05,28.30
2023,05,15,15,06,28.30
2023,05,15,15,07,28.20
2023,05,15,15,08,28.10
2023,05,15,15,09,28.10
2023,05,15,15,10,28.10
2023,05,15,15,11,28.10
2023,05,15,15,12,28.10
2023,05,15,15,13,28.10
2023,05,15,15,14,28.20
2023,05,15,15,15,28.30
2023,05,15,15,16,28.30
2023,05,15,15,17,28.40
2023,05,15,15,18,28.40
2023,05,15,15,19,28.20
2023,05,15,15,20,28.10
2023,05,15,15,21,28.00
2023,05,15,15,22,28.00
2023,05,15,15,23,28.00
2023,05,15,15,24,28.00
2023,05,15,15,25,28.00
2023,05,15,15,26,28.00
2023,05,15,15,27,27.90
2023,05,15,15,28,27.90
2023,05,15,15,29,27.80
2023,05,15,15,30,27.80
2023,05,15,15,31,27.90
2023,05,15,15,32,28.00
2023,05,15,15,33,28.10
2023,05,15,15,34,28.20
2023,05,15,15,35,28.20
2023,05,15,15,36,28.20
2023,05,15,15,37,28.20
2023,05,15,15,38,28.10
2023,05,15,15,39,28.00
2023,05,15,15,40,27.80
2023,05,15,15,41,27.60
2023,05,15,15,42,27.50
2023,05,15,15,43,27.40
2023,05,15,15,44,27.30
2023,05,15,15,45,27.40
2023,05,15,15,46,27.40
2023,05,15,15,47,27.50
2023,05,15,15,48,27.60
2023,05,15,15,49,27.70
2023,05,15,15,50,27.80
2023,05,15,15,51,27.90
2023,05,15,15,52,28.00
2023,05,15,15,53,28.10
2023,05,15,15,54,28.10
2023,05,15,15,55,28.20
2023,05,15,15,56,28.20
2023,05,15,15,57,28.10
2023,05,15,15,58,28.10
2023,05,15,15,59,28.10
2023,05,15,16,00,28.10
2023,05,15,16,01,28.20
2023,05,15,16,02,28.20
2023,05,15,16,03,28.30
2023,05,15,16,04,28.30
2023,05,15,16,05,28.30
2023,05,15,16,06,28.30
2023,05,15,16,07,28.40
2023,05,15,16,08,28.40
2023,05,15,16,09,28.50
2023,05,15,16,10,28.60
2023,05,15,16,11,28.60
2023,05,15,16,12,28.60
2023,05,15,16,13,28.60
2023,05,15,16,14,28.60
2023,05,15,16,15,28.60
2023,05,15,16,16,28.70
2023,05,15,16,17,28.70
2023,05,15,16,18,28.80
2023,05,15,16,19,28.80
2023,05,15,16,20,28.90
2023,05,15,16,21,28.90
2023,05,15,16,22,28.90
2023,05,15,16,23,28.90
2023,05,15,16,24,28.80
2023,05,15,16,25,28.80
2023,05,15,16,26,28.80
2023,05,15,16,27,28.70
2023,05,15,16,28,28.70
2023,05,15,16,29,28.70
2023,05,15,16,30,28.70
2023,05,15,16,31,28.70
2023,05,15,16,32,28.70
2023,05,15,16,33,28.80
2023,05,15,16,34,28.80
2023,05,15,16,35,28.80
2023,05,15,16,36,28.80
2023,05,15,16,37,28.70
2023,05,15,16,38,28.60
2023,05,15,16,39,28.60
2023,05,15,16,40,28.50
2023,05,15,16,41,28.30
2023,05,15,16,42,28.00
2023,05,15,16,43,27.70
2023,05,15,16,44,27.50
2023,05,15,16,45,27.30
2023,05,15,16,46,27.20
2023,05,15,16,47,27.10
2023,05,15,16,48,27.00
2023,05,15,16,49,26.80
2023,05,15,16,50,26.80
2023,05,15,16,51,26.80
2023,05,15,16,52,26.80
2023,05,15,16,53,26.80
2023,05,15,16,54,26.80
2023,05,15,16,55,26.90
2023,05,15,16,56,27.00
2023,05,15,16,57,27.10
2023,05,15,16,58,27.30
2023,05,15,16,59,27.40
2023,05,15,17,00,27.50
2023,05,15,17,01,27.70
2023,05,15,17,02,27.90
2023,05,15,17,03,28.00
2023,05,15,17,04,28.10
2023,05,15,17,05,28.20
2023,05,15,17,06,28.30
2023,05,15,17,07,28.40
2023,05,15,17,08,28.50
2023,05,15,17,09,28.60
2023,05,15,17,10,28.70
2023,05,15,17,11,28.80
2023,05,15,17,12,28.90
2023,05,15,17,13,28.90
2023,05,15,17,14,29.10
2023,05,15,17,15,29.20
2023,05,15,17,16,29.30
2023,05,15,17,17,29.40
2023,05,15,17,18,29.50
2023,05,15,17,19,29.50